Weather Roundup
Issued by NWS Chicago, IL

Home | Current Version | Previous Version | Graphics & Text | Print | Product List | Glossary On
Versions: 1 2 3 4 5 6 7 8 9 10 11 12 13 14 15 16 17 18 19 20 21 22 23 24 25 26 27 28 29 30 31 32 33 34 35 36 37 38 39 40 41 42 43 44 45 46 47 48 49 50
000
NZUS59 KLOT 070224
HRRLOT

CHICAGO AREA WEATHER ROUNDUP
NATIONAL WEATHER SERVICE CHICAGO/ROMEOVILLE IL
900 PM CDT WED MAY 06 2015

NOTE: "FAIR" INDICATES FEW OR NO CLOUDS BELOW 12,000 FEET WITH NO
SIGNIFICANT WEATHER AND/OR OBSTRUCTIONS TO VISIBILITY.

* THESE STATIONS ARE NOT UNDER NWS QUALITY CONTROL. THEY ALSO MAY NOT
  REPORT WEATHER SUCH AS PRECIPITATION OR FOG.

ILZ005-006-012>014-019>023-070300-
NORTHEAST ILLINOIS

CITY           SKY/WX    TMP DP  RH WIND       PRES   REMARKS
OHARE          MOCLDY    60  53  77 NE7       30.06S
MIDWAY         MOCLDY    60  53  77 NE7       30.07R
AURORA         MOCLDY    68  58  70 E7        30.05R
LANSING*       MOCLDY    62  53  73 NE3       30.07S
JOLIET*        MOCLDY    69  61  74 E3        30.05R
WAUKEGAN       FOG       49  48  97 NE3       30.08S VSB 3/4
DUPAGE AIRPORT MOCLDY    64  57  78 E7        30.05S HAZE
WHEELING       MOCLDY    53  50  89 E5        30.09R
KANKAKEE*      MOCLDY    72  59  62 CALM      30.06S
MORRIS*        MOCLDY    73  53  50 SE5       30.03R
LEWIS AIRPORT* MOCLDY    67  58  72 E3        30.06R
NORTHERLY IS     N/A     49  47  93 N3          N/A
$$

WIZ051-052-058>065-066-070>072-070300-
SOUTHEAST WISCONSIN

CITY           SKY/WX    TMP DP  RH WIND       PRES   REMARKS
MILWAUKEE      FOG       45  43  93 NE6       30.10S VSB 1/8
KENOSHA*       FOG       50  49  96 E8        30.09R VSB 1/2
RACINE*        FOG       45  44  97 N5        30.11R VSB 1/4
BURLINGTON     PTCLDY    56  54  94 E5        30.07F FOG
WAUKESHA       MOCLDY    55  52  88 E5        30.08F FOG
WEST BEND      MOCLDY    54  50  87 E5        30.08S FOG
$$

INZ001>003-010>013-019-020-070300-
NORTHWEST INDIANA

CITY           SKY/WX    TMP DP  RH WIND       PRES   REMARKS
GARY*          MOCLDY    55 N/A N/A CALM      30.08R
MICHIGAN CITY* NOT AVBL
RENSSELAER*    NOT AVBL
VALPARAISO     PTCLDY    69  54  58 E3        30.08R
$$

LMZ740>746-070300-
SOUTHERN LAKE MICHIGAN

STATION/POSITION TIME  SKY/WX   TEMP WIND        PRES    VSBY
                                AIR  DIR/SP/G
                 (UTC)          (F)  (DEG/KT/KT) (MB)    (MI)
HARRISON CRIB    0200            46  350/  7/  8   N/A
BURNHAM HARBOR   0200            49   10/  4/  6   N/A
CALUMET HARBOR   0100            50  350/  4/  5   N/A
BURNS HARBOR     0100            58   80/  9/ 12 1018.6S
MICHIGAN CITY    0200            68  100/  3/  4   N/A
$$

ABBREVIATIONS USED IN REMARKS
   TC - TEMPERATURE IN CELSIUS
  WCI - WIND CHILL INDEX
   HX - HEAT INDEX
  VSB - VISIBILITY
$$


USA.gov is the U.S. government's official web portal to all federal, state and local government web resources and services.